星链-31067 (STARLINK-31067 )

导读 | 星芒AI

STARLINK-31067 是 SpaceX Starlink 卫星互联网项目中的一颗低轨卫星,属于第67批发射的星链卫星群。该卫星运行于约550公里高度的近地轨道,旨在为全球用户提供高速、低延迟的宽带互联网服务。作为星链计划的重要组成部分,STARLINK-31067 与其他卫星协同工作,提升网络覆盖范围与连接稳定性,尤其服务于传统网络难以覆盖的偏远地区。

基本信息
目录编号:
58608
目录名称:
STARLINK-31067
国际标识:
2023-200V
轨道中心:
EARTH
卫星名称:
星链-31067
卫星全名:
星链-31067 (STARLINK-31067 )
卫星状态:
在轨 (已飞行682 天)
发射日期:
2023-12-19 UTC
国别 :
美国 (US)
星等 :
--
轨道信息
数据来源 国际轨道数据 AOE轨道数据
星历时间 2025-10-30T23:16:48+0800
1天前
查看轨道信息
2025-10-25T21:00:00+0800
6天前
查看轨道信息
半长轴 6937.213km 6937.229km
偏心率 0.0001042 0.0001488
轨道倾角 43.002° 43.002°
近地点辐角 271.922° 245.091°
升交点赤经 156.691° 184.378°
平近点角 88.150° 243.804°
近地点 558.355km 558.061km
远地点 559.801km 560.127km
周期 95.838分钟 95.838分钟
每日圈数 15.025373 15.02532
详细信息
固有亮度:
5
最大亮度:
0.3
卫星平台:
Starlink v2.0 mini
覆盖范围:
全球
运营商:
太空探索技术公司
运营商所在国:
美国
制造商(研发单位):
太空探索技术公司
制造商所在国:
美国
使用方式:
暂无
卫星简介
星链(Starlink)计划是由太空探索技术公司(SpaceX)提出的一个巨型低轨卫星互联网星座项目,计划在2019年至2024年间在太空搭建由约1.2万颗卫星组成的“星链”网络,其中1584颗将部署在地球上空550千米处的近地轨道,并从2020年开始工作。该卫星仍在工作。
2D轨道图
3D轨道图
轨道高度分析图
轨道倾角分析图
轨道综合分析图
查看轨道综合分析图